K7RCT-13 Weather Reports


time (UTC)temp
F
wind
direction
speed
knots
gust
knots
rain 1hr
in
rain 24hr
in
rain mn
in
humidity
%
barometer
mb
20210518210205 56 216 0.0 0.0 0.01 0.15 0.05 64 1018.6
20210518205704 55 148 0.0 0.0 0.01 0.15 0.05 68 1018.7
20210518205205 56 86 0.0 0.0 0.01 0.15 0.05 67 1018.7
20210518204704 56 86 0.0 0.0 0.02 0.15 0.05 72 1018.8
20210518204204 55 137 0.0 0.0 0.02 0.15 0.05 76 1018.8
20210518203704 54 199 0.0 0.0 0.03 0.15 0.05 71 1018.9
20210518203205 56 323 0.0 0.0 0.03 0.15 0.05 73 1019.0
20210518202705 56 283 0.0 0.0 0.03 0.15 0.05 80 1019.0
20210518202204 54 251 0.0 0.0 0.04 0.15 0.05 80 1019.0
20210518201704 52 234 0.0 0.0 0.05 0.15 0.05 83 1019.1
20210518201204 50 306 0.0 0.0 0.05 0.15 0.05 80 1019.0
20210518200704 51 224 0.0 0.0 0.04 0.14 0.04 83 1019.1
20210518200205 50 251 0.0 0.0 0.04 0.14 0.04 82 1019.0
20210518195704 49 344 0.0 0.0 0.04 0.14 0.04 81 1018.9
20210518195204 49 338 0.0 0.0 0.04 0.14 0.04 77 1018.9
20210518194704 50 327 0.0 0.0 0.03 0.13 0.03 77 1018.9
20210518194204 51 355 0.0 0.0 0.03 0.13 0.03 79 1018.8
20210518193707 51 279 0.0 0.0 0.02 0.12 0.02 77 1018.8
20210518193204 51 0 0.0 0.0 0.02 0.12 0.02 74 1018.8
20210518192704 52 244 0.0 0.0 0.02 0.12 0.02 76 1019.0
20210518192204 53 306 0.0 0.0 0.00 0.10 0.00 70 1018.9
20210518191705 53 212 0.0 0.0 0.00 0.10 0.00 65 1018.8
20210518191205 53 128 0.0 0.0 0.00 0.10 0.00 66 1018.8
20210518190704 54 148 0.0 0.0 0.00 0.10 0.00 62 1018.8
20210518190205 54 252 0.0 0.0 0.00 0.10 0.00 64 1018.8
20210518185704 54 307 0.0 0.0 0.00 0.10 0.00 63 1018.9
20210518185204 55 226 0.0 0.0 0.00 0.10 0.00 61 1018.9
20210518184705 54 141 0.0 0.0 0.00 0.10 0.00 63 1019.0
20210518184205 55 264 0.0 0.0 0.00 0.10 0.00 67 1019.0
20210518183704 54 302 0.0 0.0 0.00 0.10 0.00 65 1019.1
20210518183205 54 235 0.0 0.0 0.00 0.10 0.00 66 1018.9
20210518182705 53 85 0.0 0.0 0.00 0.10 0.00 71 1019.0
20210518182205 53 288 0.0 0.0 0.00 0.10 0.00 73 1019.0
20210518181704 50 73 0.0 0.0 0.00 0.10 0.00 74 1019.0
20210518181204 53 52 0.0 0.0 0.00 0.10 0.00 68 1019.0
20210518180704 55 353 0.0 0.0 0.00 0.10 0.00 64 1018.9
20210518180205 55 305 0.0 0.0 0.00 0.10 0.00 62 1019.0
20210518175704 56 233 0.0 0.0 0.00 0.10 0.00 64 1018.9
20210518175204 56 161 0.0 0.0 0.00 0.10 0.00 60 1019.0
20210518174704 57 337 0.0 0.0 0.00 0.10 0.00 62 1019.0
20210518174205 56 223 0.0 0.0 0.00 0.10 0.00 64 1019.0
20210518173704 55 176 0.0 0.0 0.00 0.10 0.00 63 1019.0
20210518173205 54 223 0.0 0.0 0.00 0.10 0.00 66 1019.0
20210518172707 53 230 0.0 0.0 0.00 0.10 0.00 64 1018.9
20210518172205 53 244 0.0 0.0 0.00 0.10 0.00 68 1018.8
20210518171705 52 173 0.0 0.0 0.00 0.10 0.00 68 1019.1
20210518171205 52 240 0.0 0.0 0.00 0.10 0.00 67 1018.9
20210518170704 53 226 0.0 0.0 0.00 0.10 0.00 71 1019.0
20210518170208 52 269 0.0 0.0 0.00 0.10 0.00 69 1019.0
20210518165704 52 295 0.0 0.0 0.00 0.10 0.00 69 1019.0
20210518165204 52 244 0.0 0.0 0.00 0.10 0.00 69 1019.0
20210518164705 50 269 0.0 0.0 0.00 0.10 0.00 70 1018.9
20210518164204 50 233 0.0 0.0 0.00 0.10 0.00 71 1018.9
20210518163707 50 195 0.0 0.0 0.00 0.10 0.00 71 1018.9
20210518163207 50 231 0.0 0.0 0.00 0.10 0.00 72 1018.8
20210518162704 50 172 0.0 0.0 0.00 0.10 0.00 73 1018.8
20210518162205 50 137 0.0 0.0 0.00 0.10 0.00 73 1018.8
20210518161704 49 169 0.0 0.0 0.00 0.10 0.00 74 1018.8
20210518161205 49 192 0.0 0.0 0.00 0.10 0.00 73 1018.8
20210518160705 48 182 0.0 0.0 0.00 0.10 0.00 74 1018.8
20210518160205 49 298 0.0 0.0 0.00 0.10 0.00 74 1018.8
20210518155704 49 144 0.0 0.0 0.00 0.10 0.00 75 1018.8
20210518155205 48 189 0.0 0.0 0.00 0.10 0.00 74 1018.7
20210518154704 48 210 0.0 0.0 0.00 0.10 0.00 75 1018.7
20210518154205 48 188 0.0 0.0 0.00 0.10 0.00 75 1018.7
20210518153704 48 217 0.0 0.0 0.00 0.10 0.00 76 1018.7
20210518153204 48 173 0.0 0.0 0.00 0.10 0.00 75 1018.5
20210518152704 47 220 0.0 0.0 0.00 0.10 0.00 76 1018.4
20210518152205 47 197 0.0 0.0 0.00 0.10 0.00 76 1018.4
20210518151704 47 186 0.0 0.0 0.00 0.10 0.00 75 1018.3
20210518151204 47 212 0.0 0.0 0.00 0.10 0.00 76 1018.3
20210518150705 47 212 0.0 0.0 0.00 0.10 0.00 76 1018.2
20210518150204 47 183 0.0 0.0 0.00 0.10 0.00 77 1018.3
20210518145705 47 213 0.0 0.0 0.00 0.10 0.00 77 1018.2
20210518145204 47 207 0.0 0.0 0.00 0.10 0.00 78 1018.0
20210518144704 47 190 0.0 0.0 0.00 0.10 0.00 78 1018.0
20210518144205 47 176 0.0 0.9 0.00 0.10 0.00 77 1017.9
20210518143704 47 196 0.0 0.9 0.00 0.10 0.00 77 1017.9
20210518143205 47 149 0.0 0.9 0.00 0.10 0.00 78 1017.8
20210518142704 47 200 0.0 0.9 0.00 0.10 0.00 78 1017.8
20210518142205 47 200 0.0 0.9 0.00 0.10 0.00 78 1017.7
20210518141704 47 217 0.0 0.9 0.00 0.10 0.00 77 1017.7
20210518141205 47 176 0.0 0.0 0.00 0.10 0.00 77 1017.7
20210518140705 47 189 0.0 0.0 0.00 0.10 0.00 77 1017.6
20210518140204 47 224 0.0 0.0 0.00 0.10 0.00 78 1017.5
20210518135704 47 182 0.0 0.0 0.00 0.10 0.00 78 1017.3
20210518135205 47 186 0.0 0.0 0.00 0.10 0.00 78 1017.2
20210518134704 47 203 0.0 0.0 0.00 0.10 0.00 78 1017.1
20210518134205 47 182 0.0 0.0 0.00 0.10 0.00 78 1017.1
20210518133704 46 209 0.0 0.0 0.00 0.10 0.00 79 1017.2
20210518133205 46 219 0.0 0.0 0.00 0.10 0.00 79 1017.1
20210518132704 46 152 0.0 0.0 0.00 0.10 0.00 79 1017.0
20210518132205 46 176 0.0 0.0 0.00 0.10 0.00 79 1016.9
20210518131705 46 176 0.0 0.0 0.00 0.10 0.00 79 1016.9
20210518131205 46 120 0.0 0.0 0.00 0.10 0.00 79 1016.7
20210518130705 46 199 0.0 0.0 0.00 0.10 0.00 80 1016.6
20210518130205 46 180 0.0 0.0 0.00 0.10 0.00 80 1016.6
20210518125704 46 131 0.0 0.0 0.00 0.10 0.00 80 1016.6
20210518125205 46 159 0.0 0.0 0.00 0.10 0.00 80 1016.6
20210518124705 46 192 0.0 0.0 0.00 0.10 0.00 80 1016.4
20210518124204 46 135 0.0 0.0 0.00 0.10 0.00 80 1016.3
20210518123704 46 310 0.0 0.0 0.00 0.10 0.00 80 1016.1
20210518123205 46 189 0.0 0.0 0.00 0.10 0.00 80 1016.0
20210518122704 46 175 0.0 0.0 0.00 0.10 0.00 80 1016.0
20210518122204 46 165 0.0 0.0 0.00 0.10 0.00 80 1015.8
20210518121707 46 142 0.0 0.0 0.00 0.10 0.00 80 1015.8
20210518121204 46 193 0.0 0.0 0.00 0.10 0.00 80 1015.7
20210518120705 46 176 0.0 0.0 0.00 0.10 0.00 79 1015.8
20210518120204 46 171 0.0 0.0 0.00 0.10 0.00 80 1015.7
20210518115704 46 197 0.0 0.0 0.00 0.10 0.00 79 1015.7
20210518115204 46 207 0.0 0.0 0.00 0.10 0.00 79 1015.6
20210518114707 46 197 0.0 0.0 0.00 0.10 0.00 80 1015.5
20210518114204 46 111 0.0 6.1 0.00 0.10 0.00 80 1015.4
20210518113704 46 113 0.0 6.1 0.00 0.10 0.00 80 1015.4
20210518113205 46 159 0.0 6.1 0.00 0.10 0.00 80 1015.4
20210518112704 46 231 0.9 6.1 0.00 0.10 0.00 80 1015.4
20210518112204 46 217 0.0 6.1 0.00 0.10 0.00 80 1015.2
20210518111704 46 173 0.9 0.0 0.00 0.10 0.00 79 1015.1
20210518111204 46 140 0.0 0.0 0.00 0.10 0.00 79 1015.0
20210518110705 47 200 0.0 0.0 0.00 0.10 0.00 79 1015.0
20210518110205 47 227 0.0 0.0 0.00 0.10 0.00 79 1015.0
20210518105704 47 164 0.0 11.3 0.00 0.10 0.00 78 1015.0
20210518105204 47 113 0.0 11.3 0.00 0.10 0.00 78 1014.8
20210518104704 47 176 0.0 11.3 0.00 0.10 0.00 78 1014.8
20210518104204 47 162 0.0 8.7 0.00 0.10 0.00 78 1014.6
20210518103704 47 219 0.0 1.7 0.00 0.10 0.00 78 1014.5
20210518103204 47 183 0.0 1.7 0.00 0.10 0.00 78 1014.6
20210518102704 47 216 0.0 0.9 0.00 0.10 0.00 78 1014.5
20210518102205 47 145 0.0 3.5 0.00 0.10 0.00 78 1014.4
20210518101704 47 244 0.0 3.5 0.00 0.10 0.00 78 1014.5
20210518101204 47 165 0.0 3.5 0.00 0.10 0.00 78 1014.6
20210518100704 47 204 0.0 0.0 0.00 0.10 0.00 78 1014.6
20210518100204 47 159 0.0 0.0 0.00 0.10 0.00 79 1014.6
20210518095704 48 173 0.0 8.7 0.00 0.10 0.00 79 1014.6
20210518095204 48 220 0.0 8.7 0.00 0.10 0.00 79 1014.5
20210518094704 48 204 0.0 7.8 0.00 0.10 0.00 79 1014.4
20210518094204 48 202 0.0 7.8 0.00 0.10 0.00 79 1014.4
20210518093704 48 204 0.0 7.8 0.00 0.10 0.00 79 1014.4
20210518093204 48 133 0.0 5.2 0.00 0.10 0.00 79 1014.4
20210518092704 48 223 0.0 5.2 0.00 0.10 0.00 79 1014.4
20210518092204 48 251 0.0 11.3 0.00 0.10 0.00 79 1014.2
20210518091705 49 213 0.0 11.3 0.00 0.10 0.00 79 1014.0
20210518091208 49 176 0.9 11.3 0.00 0.10 0.00 79 1014.0
20210518090705 48 180 1.7 19.1 0.00 0.10 0.00 79 1014.0
20210518090207 48 165 0.0 19.1 0.00 0.10 0.00 79 1013.8
20210518085707 49 172 2.6 19.1 0.00 0.10 0.00 78 1013.7
20210518085204 48 185 1.7 12.2 0.00 0.10 0.00 78 1013.6
20210518084704 49 189 0.9 12.2 0.00 0.10 0.00 78 1013.5
20210518084205 49 161 1.7 12.2 0.00 0.10 0.00 79 1013.4
20210518083704 49 220 0.0 12.2 0.00 0.10 0.00 79 1013.4
20210518083208 49 149 0.9 12.2 0.00 0.10 0.00 79 1013.1
20210518082704 49 171 0.0 13.0 0.00 0.10 0.00 79 1013.0
20210518082204 49 140 3.5 13.0 0.00 0.10 0.00 79 1012.9
20210518081705 49 204 0.0 13.0 0.00 0.10 0.00 79 1012.9
20210518081204 49 226 0.9 13.9 0.00 0.10 0.00 80 1012.9
20210518080704 49 173 0.0 13.9 0.00 0.10 0.00 80 1012.8
20210518080204 49 175 1.7 10.4 0.00 0.10 0.00 80 1012.8
20210518075704 49 158 0.0 13.9 0.00 0.10 0.00 81 1012.7
20210518075204 49 137 0.9 13.9 0.00 0.10 0.00 81 1012.4
20210518074705 49 213 0.0 13.0 0.00 0.10 0.00 82 1012.5
20210518074204 49 128 1.7 12.2 0.00 0.10 0.00 82 1012.2
20210518073705 49 206 0.9 10.4 0.00 0.10 0.00 82 1012.1
20210518073205 49 221 0.9 9.6 0.00 0.10 0.00 82 1012.0
20210518072705 49 185 0.9 9.6 0.00 0.10 0.00 82 1011.9
20210518072205 49 251 0.0 11.3 0.00 0.10 0.00 83 1011.7
20210518071705 49 295 0.0 11.3 0.00 0.10 0.00 84 1011.7
20210518071204 49 124 0.0 13.0 0.00 0.10 0.00 84 1011.8
20210518070707 49 140 1.7 13.0 0.01 0.10 0.00 84 1011.5
20210518070208 49 258 1.7 2.6 0.01 0.10 0.10 85 1011.5
20210518065704 49 145 0.0 8.7 0.01 0.10 0.10 85 1011.5
20210518065205 49 202 0.0 10.4 0.02 0.10 0.10 86 1011.4
20210518064704 49 189 0.0 12.2 0.02 0.10 0.10 86 1011.3
20210518064204 49 226 1.7 12.2 0.02 0.10 0.10 87 1011.4
20210518063704 49 168 3.5 13.0 0.03 0.10 0.10 88 1011.3
20210518063204 49 286 2.6 13.0 0.03 0.10 0.10 88 1011.2
20210518062705 50 158 1.7 8.7 0.03 0.10 0.10 89 1011.3
20210518062204 50 172 0.0 0.0 0.03 0.10 0.10 89 1011.3
20210518061704 51 155 0.0 0.0 0.03 0.10 0.10 90 1011.3
20210518061204 51 176 0.0 0.9 0.03 0.10 0.10 90 1011.2
20210518060704 51 202 0.0 0.9 0.02 0.09 0.09 90 1011.2
20210518060205 51 157 0.0 0.9 0.02 0.09 0.09 90 1011.1
20210518055704 51 114 0.0 0.0 0.02 0.09 0.09 90 1011.2
20210518055204 51 138 0.0 0.0 0.02 0.08 0.08 90 1011.0
20210518054704 51 137 0.0 0.0 0.02 0.08 0.08 89 1011.0
20210518054204 51 203 0.0 0.0 0.02 0.08 0.08 90 1011.1
20210518053704 51 178 0.0 0.0 0.01 0.07 0.07 89 1011.2
20210518053205 51 178 0.0 0.0 0.01 0.07 0.07 89 1011.2
20210518052705 51 173 0.0 0.0 0.01 0.07 0.07 89 1011.1
20210518052204 51 217 0.0 0.0 0.01 0.07 0.07 89 1011.1
20210518051705 51 183 0.0 0.0 0.01 0.07 0.07 89 1011.3
20210518051204 51 162 0.0 0.0 0.01 0.07 0.07 88 1011.4
20210518050704 51 179 0.0 0.0 0.01 0.07 0.07 88 1011.4
20210518050205 51 141 0.0 0.0 0.01 0.07 0.07 87 1011.5
20210518045704 51 180 0.0 0.0 0.01 0.07 0.07 87 1011.4
20210518045204 51 145 0.0 0.0 0.00 0.06 0.06 87 1011.4
20210518044704 51 147 0.0 0.0 0.00 0.06 0.06 87 1011.4
20210518044204 50 147 0.0 0.0 0.00 0.06 0.06 86 1011.3
20210518043713 51 186 0.0 0.0 0.00 0.06 0.06 86 1011.5
20210518043205 51 223 0.0 0.0 0.00 0.06 0.06 86 1011.4
20210518042704 50 202 0.0 5.2 0.00 0.06 0.06 86 1011.4
20210518042204 50 155 0.0 5.2 0.00 0.06 0.06 86 1011.3
20210518041705 50 179 0.0 5.2 0.00 0.06 0.06 86 1011.2
20210518041205 50 162 0.0 0.9 0.00 0.06 0.06 86 1011.2
20210518040705 50 151 0.0 0.0 0.00 0.06 0.06 87 1011.1
20210518040205 50 237 0.0 0.0 0.01 0.06 0.06 87 1011.1
20210518035704 50 152 0.0 0.0 0.01 0.06 0.06 87 1011.0
20210518035205 50 196 0.0 0.0 0.01 0.06 0.06 88 1011.0
20210518034704 51 200 0.0 0.0 0.02 0.06 0.06 88 1011.0
20210518034204 51 145 0.0 0.0 0.02 0.06 0.06 88 1010.9
20210518033704 51 164 0.0 0.0 0.02 0.06 0.06 89 1011.0
20210518033205 51 245 0.0 0.0 0.03 0.06 0.06 88 1010.7
20210518032704 51 176 0.0 0.0 0.03 0.06 0.06 89 1010.8
20210518032205 51 175 0.0 0.0 0.04 0.06 0.06 89 1010.8
20210518031704 51 196 0.0 0.0 0.05 0.06 0.06 88 1010.8
20210518031204 51 180 0.0 0.0 0.06 0.06 0.06 88 1010.8
20210518030707 51 193 0.0 0.0 0.06 0.06 0.06 88 1010.8
20210518030205 51 173 0.0 0.0 0.05 0.05 0.05 88 1011.0
20210518025704 51 165 0.0 0.0 0.05 0.05 0.05 87 1010.9
20210518025207 51 186 0.0 0.0 0.05 0.05 0.05 87 1011.0
20210518024704 51 158 0.0 0.0 0.04 0.04 0.04 87 1011.2
20210518024204 51 158 0.0 0.0 0.04 0.04 0.04 86 1011.2
20210518023704 52 240 0.0 0.0 0.03 0.03 0.03 86 1011.3
20210518023204 52 193 0.0 0.0 0.03 0.03 0.03 85 1011.4
20210518022704 52 196 0.0 0.0 0.02 0.02 0.02 84 1011.4
20210518022205 52 216 0.0 0.0 0.02 0.02 0.02 83 1011.3
20210518021704 53 182 0.0 0.0 0.01 0.01 0.01 82 1011.4
20210518021205 53 189 0.0 0.0 0.00 0.00 0.00 80 1011.3
20210518020705 54 159 0.0 0.0 0.00 0.00 0.00 78 1011.3
20210518020205 54 220 0.0 0.0 0.00 0.00 0.00 76 1011.3
20210518015704 55 214 0.0 0.0 0.00 0.00 0.00 75 1011.2
20210518015204 55 130 0.0 0.0 0.00 0.00 0.00 75 1011.3
20210518014705 55 161 0.0 0.0 0.00 0.00 0.00 74 1011.3
20210518014204 55 227 0.0 0.0 0.00 0.00 0.00 74 1011.3
20210518013704 55 193 0.0 0.0 0.00 0.00 0.00 74 1011.4
20210518013205 55 195 0.0 0.0 0.00 0.00 0.00 74 1011.4
20210518012704 55 195 0.0 0.0 0.00 0.00 0.00 74 1011.5
20210518012205 55 173 0.0 0.0 0.00 0.00 0.00 74 1011.5
20210518011705 56 173 0.0 0.0 0.00 0.00 0.00 74 1011.6
20210518011204 56 243 0.0 0.0 0.00 0.00 0.00 74 1011.5
20210518010707 56 199 0.0 0.0 0.00 0.00 0.00 74 1011.5
20210518010204 56 207 0.0 0.0 0.00 0.00 0.00 74 1011.5
20210518005704 56 118 0.0 0.0 0.00 0.00 0.00 74 1011.4
20210518005205 56 172 0.0 0.0 0.00 0.00 0.00 74 1011.5
20210518004704 56 168 0.0 0.0 0.00 0.00 0.00 74 1011.6
20210518004204 56 199 0.0 0.0 0.00 0.00 0.00 73 1011.8
20210518003705 57 209 0.0 0.0 0.00 0.00 0.00 70 1011.8
20210518003204 57 166 0.0 0.0 0.00 0.00 0.00 69 1011.9
20210518002704 58 135 0.0 0.0 0.00 0.00 0.00 69 1011.9
20210518002204 58 147 0.0 0.0 0.00 0.00 0.00 69 1012.0
20210518001704 58 209 0.0 0.0 0.00 0.00 0.00 68 1012.0
20210518001205 58 288 0.0 0.0 0.00 0.00 0.00 68 1012.1
20210518000704 58 176 0.0 6.1 0.00 0.00 0.00 68 1012.2
20210518000205 58 189 0.0 6.1 0.00 0.00 0.00 67 1012.2
20210517235704 58 203 0.0 6.1 0.00 0.00 0.00 68 1012.2
20210517235204 58 203 0.0 4.3 0.00 0.00 0.00 67 1012.1
20210517234705 59 212 0.0 4.3 0.00 0.00 0.00 67 1012.0
20210517234205 59 196 0.0 4.3 0.00 0.00 0.00 67 1012.2
20210517233704 59 310 0.0 0.0 0.00 0.00 0.00 67 1012.1
20210517233204 59 219 0.0 0.0 0.00 0.00 0.00 66 1012.0
20210517232704 59 213 0.0 0.0 0.00 0.00 0.00 67 1012.0
20210517232205 59 283 0.0 0.0 0.00 0.00 0.00 66 1012.0
20210517231704 59 176 0.0 0.0 0.00 0.00 0.00 66 1012.1
20210517231204 59 213 0.0 0.0 0.00 0.00 0.00 66 1012.1
20210517230704 59 238 0.0 0.0 0.00 0.00 0.00 67 1012.1
20210517230204 59 142 0.0 0.0 0.00 0.00 0.00 67 1011.9
20210517225704 59 203 0.0 0.0 0.00 0.00 0.00 67 1011.9
20210517225205 59 165 0.0 0.0 0.00 0.00 0.00 66 1011.9
20210517224704 59 197 0.0 0.0 0.00 0.00 0.00 66 1012.1
20210517224205 59 203 0.0 0.0 0.00 0.00 0.00 66 1012.1
20210517223707 60 161 0.0 0.0 0.00 0.00 0.00 66 1012.1
20210517223207 59 262 0.0 0.0 0.00 0.00 0.00 66 1012.1
20210517222705 60 190 0.0 0.0 0.00 0.00 0.00 66 1012.2
20210517222205 60 206 0.0 0.0 0.00 0.00 0.00 66 1012.3
20210517221707 60 206 0.0 0.0 0.00 0.00 0.00 67 1012.3
20210517221205 60 178 0.0 0.9 0.00 0.00 0.00 68 1012.1
20210517220706 60 178 0.0 0.9 0.00 0.00 0.00 67 1012.2
20210517220204 60 171 0.0 0.9 0.00 0.00 0.00 66 1012.2
20210517215707 60 199 0.0 0.0 0.00 0.00 0.00 67 1012.1
20210517215205 60 175 0.0 0.0 0.00 0.00 0.00 67 1012.1
20210517214704 60 223 0.0 0.0 0.00 0.00 0.00 68 1012.1
20210517214207 60 200 0.0 0.0 0.00 0.00 0.00 66 1012.0
20210517213705 60 244 0.0 0.0 0.00 0.00 0.00 67 1012.1
20210517213205 60 210 0.0 0.0 0.00 0.00 0.00 68 1012.2
20210517212704 59 216 0.0 4.3 0.00 0.00 0.00 68 1012.2
20210517212205 60 186 0.0 4.3 0.00 0.00 0.00 67 1012.2
20210517211707 60 182 0.0 4.3 0.00 0.00 0.00 68 1012.3
20210517211208 60 223 0.0 0.9 0.00 0.00 0.00 67 1012.3
20210517210704 60 234 0.0 0.0 0.00 0.00 0.00 67 1012.3